Вернуться в каталог

STARLINK-31539

АктивенСвязьVLEO
NORAD 59539·PAYLOAD·🇺🇸 United States

Запущен Apr 18, 2024 с Cape Canaveral Space Force Station

Loading…

Ближайшие Пролёты (ближайшие 24 часа)

TLE

СвежийSource: CelesTrak SupGP

Эпоха: Sep 14, 2026, 22:46 UTC

1 59539C 24074F   26257.94909722 -.00018043  00000+0 -65356-3 0  2574
2 59539  43.0034 354.7684 0001461 266.3097 256.5443 15.27585985    14

Отслеживайте STARLINK-31539 в реальном времени с AllMySat

Download on the App Store